[[{"header":{"parameterUnit":"m.s-1","parameterCategory":1,"la1":30.2991,"la2":30.254,"lo1":-89.0895,"lo2":-89.0444,"dy":0.0017,"dx":0.0017,"nx":28,"ny":28,"refTime":"2025-03-13T21:00:00:Z","depth":0,"parameterNumber":2,"parameterNumberName":"U-component_of_WINDS"},"data":[0,0,0,0,0,0,0,0,0,0,0,0,0,0,0,0,0,0,0,0,0,0,0,0,0,0,0,0,0,0,0,0,0,0,0,0,0,0,0,0,0,0,0,0,0,0,0,0,0,0,0,0,0,0,0,0,0,0,-2.3267,-2.3268,0,-2.3322,-2.3322,-2.3323,-2.3327,-2.3326,-2.3326,-2.3325,-2.3383,-2.3385,-2.3387,0,0,0,0,0,0,0,0,0,0,0,0,0,-2.3168,-2.317,-2.3267,-2.3268,-2.3268,-2.3322,-2.3322,-2.3323,-2.3327,-2.3326,-2.3325,-2.3325,-2.3382,-2.3384,-2.3387,0,0,0,0,0,0,0,0,0,0,0,0,0,-2.3216,-2.3171,-2.3267,-2.3277,-2.3278,-2.3321,-2.3322,-2.3323,-2.3327,-2.3326,-2.3325,-2.3324,-2.3381,-2.3384,-2.3387,-2.3425,0,0,-2.3397,-2.3398,0,0,0,0,0,0,0,0,-2.3213,-2.322,-2.3275,-2.3276,-2.3278,-2.3316,-2.3309,-2.3357,-2.3327,-2.3309,-2.3325,-2.3324,-2.3361,-2.3366,-2.3378,-2.3428,-2.343,-2.3397,-2.3399,-2.34,-2.3401,0,0,0,0,0,0,0,-2.321,-2.3217,-2.3289,-2.3275,-2.3277,-2.3279,-2.3285,-2.3318,-2.334,-2.331,-2.3311,-2.3317,-2.3362,-2.3375,-2.338,-2.3431,-2.3397,-2.34,-2.3402,-2.3403,-2.3514,-2.3515,0,0,0,0,0,0,-2.3205,-2.3215,-2.3287,-2.329,-2.3243,-2.3282,-2.3288,-2.3305,-2.3339,-2.3343,-2.3318,-2.3317,-2.337,-2.3376,-2.3382,-2.3427,-2.34,-2.3403,-2.3405,-2.3513,-2.3514,-2.3515,0,0,0,0,0,0,-2.3202,-2.3211,-2.3285,-2.3253,-2.3262,-2.3284,-2.3303,-2.3307,-2.332,-2.3345,-2.3349,-2.3327,-2.337,-2.3377,-2.3414,-2.3429,-2.3405,-2.3408,-2.3512,-2.3513,-2.3515,-2.3519,0,0,0,0,0,0,-2.32,-2.321,-2.3224,-2.3253,-2.3264,-2.3315,-2.3304,-2.3308,-2.3325,-2.3324,-2.3355,-2.3359,-2.337,-2.3409,-2.3417,-2.3433,-2.341,-2.351,-2.3512,-2.3514,-2.3518,-2.3521,-2.3523,0,0,0,0,0,-2.3196,-2.3224,-2.3225,-2.3234,-2.3282,-2.3316,-2.3323,-2.3334,-2.3326,-2.3341,-2.3357,-2.3358,-2.3427,-2.3413,-2.3422,-2.3439,-2.3509,-2.3512,-2.3514,-2.3516,-2.352,-2.3523,0,0,0,0,0,0,-2.3197,-2.3228,-2.3229,-2.3267,-2.3289,-2.3317,-2.3335,-2.3338,-2.3363,-2.3361,-2.3376,-2.3382,-2.3418,-2.3433,-2.3417,-2.3478,-2.3467,-2.3472,-2.3466,-2.347,-2.3473,-2.3468,-2.3413,0,0,0,0,0,-2.3201,-2.3226,-2.3252,-2.3283,-2.3294,-2.3313,-2.3328,-2.3335,-2.3359,-2.3368,-2.3387,-2.3411,-2.3438,-2.3455,-2.3481,-2.3521,-2.3527,-2.3537,-2.354,-2.3542,-2.3545,-2.3567,-2.3571,-2.3523,-2.3523,-2.3523,0,0,-2.3211,-2.3231,-2.3246,-2.3284,-2.3301,-2.3327,-2.332,-2.3348,-2.3367,-2.3373,-2.3408,-2.3423,-2.345,-2.3488,-2.3506,-2.3501,-2.356,-2.3545,-2.3547,-2.3549,-2.3569,-2.3574,-2.3578,-2.3525,-2.3524,-2.3524,0,0,-2.3241,-2.3259,-2.3286,-2.3304,-2.3331,-2.3344,-2.335,-2.3378,-2.3388,-2.3423,-2.3428,-2.3452,-2.3498,-2.3517,-2.3532,-2.3571,-2.3572,-2.3579,-2.3593,-2.3614,-2.3618,-2.3621,-2.3634,-2.3638,-2.3583,-2.3583,-2.3583,0,-2.3249,-2.3288,-2.33,-2.3327,-2.3344,-2.335,-2.3377,-2.3395,-2.3429,-2.3441,-2.3435,-2.3493,-2.3512,-2.3554,-2.3564,-2.3577,-2.3585,-2.3575,-2.3616,-2.362,-2.3623,-2.3635,-2.364,-2.3583,-2.3583,-2.3583,-2.3583,0,-2.3296,-2.3323,-2.3342,-2.3374,-2.3393,-2.342,-2.3437,-2.3455,-2.3461,-2.3475,-2.3511,-2.3534,-2.3565,-2.3576,-2.3582,-2.3619,-2.3615,-2.3613,-2.3603,-2.3628,-2.3639,-2.3644,-2.3584,-2.3584,-2.3584,-2.3583,0,0,-2.3326,-2.3365,-2.3372,-2.3386,-2.3417,-2.3438,-2.3467,-2.3496,-2.3511,-2.3535,-2.3559,-2.3598,-2.3596,-2.3614,-2.3623,-2.3642,-2.3669,-2.3637,-2.3638,-2.3641,-2.371,-2.371,-2.3716,-2.3672,-2.3673,-2.3673,-2.3708,0,-2.3359,-2.3407,-2.342,-2.3462,-2.3486,-2.3493,-2.3518,-2.354,-2.3553,-2.3577,-2.3592,-2.3619,-2.3616,-2.3626,-2.3645,-2.3662,-2.3683,-2.366,-2.3693,-2.3694,-2.3684,-2.3722,-2.3722,-2.3753,-2.3712,-2.3713,-2.3714,0,-2.3402,-2.3426,-2.347,-2.3497,-2.3508,-2.353,-2.3558,-2.3581,-2.3606,-2.3615,-2.3635,-2.3642,-2.3672,-2.3662,-2.3704,-2.3688,-2.3703,-2.3713,-2.3715,-2.3717,-2.3704,-2.3723,-2.3763,-2.3767,-2.3721,-2.3721,-2.372,0,-2.3418,-2.3462,-2.3494,-2.3506,-2.3539,-2.3554,-2.3569,-2.3593,-2.361,-2.3635,-2.3646,-2.3675,-2.369,-2.3713,-2.3728,-2.3719,-2.3769,-2.376,-2.3776,-2.3776,-2.3785,-2.3783,-2.3826,-2.3797,-2.3797,-2.3797,-2.3797,0,-2.3452,-2.3478,-2.3501,-2.352,-2.355,-2.3565,-2.3594,-2.361,-2.3631,-2.3654,-2.3663,-2.3684,-2.3704,-2.3728,-2.3741,-2.3773,-2.3781,-2.3789,-2.3791,-2.3787,-2.3785,-2.3795,-2.3793,-2.3798,-2.3798,-2.3798,-2.3798,0,-2.3473,-2.349,-2.3525,-2.3553,-2.3561,-2.3582,-2.3606,-2.3626,-2.364,-2.3669,-2.3677,-2.37,-2.3729,-2.3747,-2.3784,-2.3793,-2.3828,-2.383,-2.3818,-2.3819,-2.3834,-2.3832,-2.3883,-2.389,-2.3858,-2.3859,-2.3859,0,-2.3492,-2.3513,-2.3543,-2.3559,-2.3573,-2.3598,-2.3615,-2.3632,-2.3649,-2.368,-2.3696,-2.3725,-2.3749,-2.3796,-2.3816,-2.3845,-2.3848,-2.3864,-2.3852,-2.3847,-2.3846,-2.3844,-2.3846,-2.3865,-2.3865,-2.3865,-2.3866,0,-2.3525,-2.3532,-2.3556,-2.3583,-2.3603,-2.3625,-2.3647,-2.366,-2.368,-2.3699,-2.3729,-2.3748,-2.3786,-2.3815,-2.3845,-2.3862,-2.3867,-2.3869,-2.3874,-2.3869,-2.3861,-2.3864,-2.3822,-2.3868,-2.3867,-2.3867,-2.3867,-2.3867,-2.3545,-2.3563,-2.3587,-2.3613,-2.3632,-2.3652,-2.3671,-2.3688,-2.3713,-2.3744,-2.3753,-2.3783,-2.3809,-2.3851,-2.3867,-2.3892,-2.389,-2.3898,-2.3899,-2.39,-2.39,-2.3858,-2.3898,-2.3898,-2.3898,-2.3898,-2.3898,0,-2.3576,-2.3592,-2.3616,-2.3646,-2.3667,-2.3671,-2.3696,-2.3713,-2.3739,-2.3763,-2.3786,-2.382,-2.3849,-2.3872,-2.3901,-2.3917,-2.392,-2.3924,-2.3922,-2.3926,-2.3901,-2.3893,-2.3921,-2.3921,-2.3921,-2.3921,-2.3921,-2.3921,-2.3594,-2.3625,-2.3635,-2.3675,-2.3691,-2.372,-2.3734,-2.3753,-2.3772,-2.3809,-2.3832,-2.3847,-2.387,-2.3902,-2.3928,-2.3934,-2.3944,-2.3947,-2.3954,-2.393,-2.3927,-2.3925,-2.3917,-2.395,-2.395,-2.3976,-2.3976,-2.3977]},{"header":{"parameterUnit":"m.s-1","parameterCategory":1,"la1":30.2991,"la2":30.254,"lo1":-89.0895,"lo2":-89.0444,"dy":0.0017,"dx":0.0017,"nx":28,"ny":28,"refTime":"2025-03-13T21:00:00:Z","depth":0,"parameterNumber":3,"parameterNumberName":"V-component_of_WINDS"},"data":[0,0,0,0,0,0,0,0,0,0,0,0,0,0,0,0,0,0,0,0,0,0,0,0,0,0,0,0,0,0,0,0,0,0,0,0,0,0,0,0,0,0,0,0,0,0,0,0,0,0,0,0,0,0,0,0,0,0,3.7747,3.7747,0,3.7744,3.7744,3.7744,3.7718,3.7717,3.7716,3.7716,3.771,3.771,3.771,0,0,0,0,0,0,0,0,0,0,0,0,0,3.773,3.7731,3.7747,3.7747,3.7747,3.7744,3.7744,3.7744,3.7718,3.7717,3.7716,3.7715,3.7709,3.771,3.771,0,0,0,0,0,0,0,0,0,0,0,0,0,3.7733,3.7731,3.7747,3.7734,3.7733,3.7744,3.7744,3.7743,3.7718,3.7717,3.7716,3.7715,3.7709,3.771,3.771,3.7733,0,0,3.7712,3.7713,0,0,0,0,0,0,0,0,3.7733,3.7734,3.7736,3.7735,3.7733,3.773,3.7735,3.774,3.7718,3.7723,3.7716,3.7715,3.7717,3.7717,3.7718,3.7733,3.7733,3.7712,3.7713,3.7713,3.7713,0,0,0,0,0,0,0,3.7733,3.7734,3.7746,3.7736,3.7734,3.7728,3.7727,3.7736,3.7725,3.7723,3.7721,3.7721,3.7716,3.7718,3.7718,3.7733,3.7712,3.7713,3.7713,3.7714,3.7768,3.7769,0,0,0,0,0,0,3.7735,3.7734,3.7746,3.7745,3.7731,3.7729,3.7728,3.7732,3.7725,3.7723,3.7722,3.772,3.7717,3.7717,3.7718,3.7746,3.7713,3.7714,3.7714,3.7767,3.7769,3.777,0,0,0,0,0,0,3.7734,3.7736,3.7746,3.7739,3.774,3.773,3.7735,3.7732,3.7734,3.7725,3.7722,3.7726,3.7716,3.7717,3.773,3.7745,3.7714,3.7715,3.7766,3.7768,3.7769,3.7801,0,0,0,0,0,0,3.7734,3.7736,3.7745,3.774,3.774,3.7759,3.7736,3.7733,3.7736,3.7733,3.7727,3.7726,3.7716,3.773,3.7731,3.7745,3.7715,3.7765,3.7767,3.7769,3.7799,3.7804,3.7808,0,0,0,0,0,3.7734,3.7753,3.7745,3.7747,3.7751,3.776,3.776,3.7749,3.7737,3.7746,3.774,3.7726,3.7743,3.7731,3.7732,3.7747,3.7764,3.7766,3.7768,3.7797,3.7803,3.7808,0,0,0,0,0,0,3.7758,3.7752,3.7743,3.7762,3.7762,3.7756,3.7766,3.7756,3.7758,3.7756,3.7741,3.774,3.7756,3.7753,3.774,3.777,3.7751,3.7754,3.7772,3.7778,3.7782,3.7783,3.7716,0,0,0,0,0,3.7766,3.7775,3.7768,3.7785,3.7785,3.7776,3.7779,3.7771,3.777,3.777,3.7765,3.7764,3.7769,3.7773,3.7777,3.7798,3.7797,3.7809,3.7814,3.7817,3.782,3.7833,3.7839,3.7778,3.7778,3.7778,0,0,3.7782,3.778,3.7785,3.779,3.7789,3.7798,3.7776,3.7786,3.7793,3.7771,3.7784,3.7781,3.7779,3.7797,3.7804,3.7794,3.7837,3.782,3.7824,3.7824,3.7836,3.7842,3.7847,3.7779,3.7779,3.7779,0,0,3.7816,3.7815,3.783,3.783,3.7829,3.7823,3.7827,3.7823,3.782,3.7834,3.7818,3.7826,3.7835,3.7835,3.7836,3.7872,3.786,3.7874,3.7898,3.7911,3.7916,3.792,3.7935,3.7941,3.7877,3.7877,3.7877,0,3.7836,3.785,3.7838,3.785,3.7853,3.7835,3.7851,3.7851,3.7852,3.7854,3.7843,3.7856,3.7853,3.7872,3.7882,3.7882,3.7887,3.7875,3.7916,3.792,3.7924,3.7938,3.7944,3.7879,3.7878,3.7878,3.7878,0,3.7875,3.7885,3.7897,3.79,3.7904,3.7918,3.7908,3.7914,3.7906,3.7901,3.7916,3.7912,3.7916,3.792,3.7911,3.7938,3.7932,3.7919,3.79,3.7932,3.7945,3.7951,3.7881,3.7881,3.788,3.788,0,0,3.7924,3.7923,3.7927,3.793,3.7929,3.7936,3.7949,3.7955,3.7961,3.7962,3.7973,3.7982,3.7971,3.7972,3.7963,3.7974,3.8006,3.796,3.7959,3.797,3.8038,3.805,3.8056,3.7998,3.7999,3.7999,3.8039,0,3.7959,3.7983,3.7974,3.7998,3.8008,3.7992,3.8003,3.8004,3.8,3.8008,3.8003,3.8011,3.7993,3.7995,3.8005,3.8,3.802,3.7997,3.8009,3.8009,3.8012,3.8063,3.8074,3.8112,3.8044,3.8045,3.8045,0,3.8002,3.8008,3.8034,3.8033,3.8037,3.8048,3.8054,3.8061,3.8061,3.8058,3.8061,3.805,3.8063,3.8043,3.8062,3.8046,3.8051,3.8049,3.805,3.8052,3.8031,3.8068,3.8124,3.813,3.8053,3.8052,3.8052,0,3.8039,3.8052,3.807,3.8072,3.8071,3.808,3.8079,3.8079,3.8084,3.8089,3.8092,3.8097,3.8101,3.8105,3.8096,3.8082,3.8117,3.8095,3.8115,3.8116,3.8124,3.8124,3.8184,3.8124,3.8124,3.8124,3.8124,0,3.808,3.8096,3.8087,3.8098,3.8117,3.8106,3.8125,3.8123,3.8123,3.8134,3.8119,3.8129,3.8116,3.8125,3.8118,3.8136,3.8136,3.8135,3.8133,3.8137,3.8138,3.8141,3.8139,3.8125,3.8125,3.8125,3.8124,0,3.8124,3.8118,3.8137,3.8135,3.8135,3.8149,3.8148,3.8158,3.8154,3.8168,3.817,3.8163,3.8173,3.8164,3.8173,3.8168,3.8193,3.8186,3.8193,3.8192,3.8213,3.8212,3.8278,3.8287,3.822,3.8221,3.8221,0,3.8151,3.8164,3.8165,3.8172,3.8173,3.8184,3.8189,3.8179,3.8185,3.8189,3.8199,3.8208,3.8215,3.8232,3.8227,3.8234,3.8229,3.8252,3.823,3.8235,3.8232,3.8232,3.8235,3.8257,3.8257,3.8258,3.8258,0,3.8201,3.8198,3.8207,3.8216,3.8223,3.8229,3.8233,3.8239,3.8229,3.8237,3.8248,3.8254,3.8264,3.8274,3.828,3.8279,3.8268,3.8265,3.8271,3.8276,3.8281,3.8281,3.8208,3.8264,3.8264,3.8263,3.8263,3.8263,3.8239,3.8251,3.8254,3.8265,3.8268,3.8273,3.8284,3.8282,3.8291,3.83,3.8293,3.8306,3.8308,3.8316,3.8317,3.8327,3.8318,3.8325,3.8327,3.833,3.8334,3.8278,3.8328,3.8328,3.8328,3.8327,3.8327,0,3.8291,3.8292,3.8302,3.8311,3.832,3.8308,3.8313,3.8322,3.8334,3.8337,3.8345,3.8359,3.8369,3.8365,3.8374,3.8383,3.8378,3.8386,3.8386,3.8387,3.834,3.8336,3.839,3.839,3.839,3.839,3.839,3.839,3.8318,3.8339,3.8336,3.8358,3.8359,3.8374,3.8378,3.8383,3.8386,3.8402,3.8411,3.8409,3.841,3.8419,3.8428,3.8427,3.8431,3.8442,3.8439,3.8396,3.839,3.8384,3.838,3.8442,3.8442,3.8485,3.8485,3.8485]}]]